Regional Weather Roundup
Issued by NWS

Home | Current Version | Previous Version | Text Only | Print | Product List | Glossary On
Versions: 1 2 3 4 5 6 7 8 9 10 11 12 13 14 15 16 17 18 19 20 21 22 23 24 25 26 27 28 29 30 31 32 33 34 35 36 37 38 39 40 41 42 43 44 45 46 47 48 49 50
000
ASUS44 KOUN 200610
RWROK

WEATHER ROUNDUP FOR OKLAHOMA
NATIONAL WEATHER SERVICE NORMAN OK
100 AM CDT SAT SEP 20 2014

NOTE: "FAIR" INDICATES FEW OR NO CLOUDS BELOW 12,000 FEET WITH NO
      SIGNIFICANT WEATHER AND/OR OBSTRUCTIONS TO VISIBILITY.

OKZ001>007-009>012-014-015-017-200700-
NORTHWEST OKLAHOMA AND THE PANHANDLE

CITY           SKY/WX    TMP DP  RH WIND       PRES   REMARKS
GAGE           CLEAR     71  63  75 S9        29.99S
6HR MIN TEMP:  71; 6HR MAX TEMP:  84;

ENID/WOODRING  PTCLDY    68  64  88 SE5       29.96S
$$

OKZ016-021>023-033>039-044-045-200700-
SOUTHWEST OKLAHOMA

CITY           SKY/WX    TMP DP  RH WIND       PRES   REMARKS
LAWTON/REGL    MOCLDY    75  68  78 SE10      29.97S
6HR MIN TEMP:  75; 6HR MAX TEMP:  85;

FREDERICK      CLOUDY    74  67  78 E7        29.94S
CLINTON        MOCLDY    73  64  73 S9        30.01R
HOBART         PTCLDY    73  66  78 S10       29.98S
ALTUS AFB      MOCLDY    70  67  88 SE8       29.97S
$$

OKZ018>020-024>031-200700-
CENTRAL OKLAHOMA

CITY           SKY/WX    TMP DP  RH WIND       PRES   REMARKS
OKLAHOMA CITY  PTCLDY    72  67  84 S8        29.98S
6HR MIN TEMP:  71; 6HR MAX TEMP:  83;

OKC/WILEY POST CLEAR     74  67  78 S14       29.98S
OKC/TINKER AFB CLEAR     71  67  86 S6        29.98F
STILLWATER     PTCLDY    72  69  90 S8        29.97S
GUTHRIE        CLEAR     72  67  84 S7        29.97S
$$

OKZ008-013-054>072-200700-
NORTHEAST OKLAHOMA

CITY           SKY/WX    TMP DP  RH WIND       PRES   REMARKS
TULSA          CLEAR     74  69  85 S8        29.96S
6HR MIN TEMP:  71; 6HR MAX TEMP:  78;

TULSA/JONES    CLEAR     69  68  96 CALM      29.97F FOG
PONCA CITY     PTCLDY    73  69  87 SE13      29.97R
BARTLESVILLE   CLEAR     64  64 100 CALM      29.98F FOG
MUSKOGEE       CLEAR     69  67  93 S6        29.99S FOG
$$

OKZ032-040>043-046>053-073>077-200700-
SOUTH CENTRAL/SOUTHEAST OKLAHOMA

CITY           SKY/WX    TMP DP  RH WIND       PRES   REMARKS
ARDMORE/DWNTWN CLEAR     72  68  88 CALM      29.97F
MCALESTER      CLEAR     71  68  90 SE3       29.99F
$$




USA.gov is the U.S. government's official web portal to all federal, state and local government web resources and services.